Weather in Detlyazhka

Russia / Krasnodar Krai     43°45′39″N   39°32′08″E
temp.,
°C
wind,
m/s
gust,
m/s
humid.,
%
clouds,
%
prec.,
mm/h
press.,
hPa
HPBL,
m
15 april, thu
thu1500:00+10e22755 0.0 101821
03:00+9ene32750 0.0 101837
06:00+10ene3372100 0.0 101836
09:00+14ese1261100 0.0 1017131
12:00+14ssw2357100 0.0 1018335
15:00+13nw226282 0.0 1018191
18:00+14nnw226754 0.0 101813
21:00+11n32725 0.0 101820
16 april, fri
fri1600:00+11ne2267100 0.0 101818
03:00+11ene2268100 0.0 101817
06:00+10ese1179100 0.1 101815
09:00+12wsw2177100 0.2 1018125
12:00+13ene3475100 0.3 1019261
15:00+13wnw2281100 0.6 1019178
18:00+13nw2280100 0.1 101931
21:00+11nnw4486100 0.1 102084
17 april, sat
sat1700:00+11nw3489100 0.1 102196
03:00+10nw4597100 2.6 1021195
06:00+11nw1192100 2.3 102220
09:00+11n1289100 3.8 102251
12:00+11wnw2291100 1.3 1022117
15:00+10nw3491100 4.1 1022187
18:00+11nw3388100 0.1 102174
21:00+12ne1184100 0.1 102115
18 april, sun
sun1800:00+11ese2286100 0.0 102019
03:00+11e228991 0.0 101820
06:00+12w1185100 0.0 101610
09:00+13w2282100 0.0 101599
12:00+16wsw217775 0.4 1014189
15:00+16ssw15785 1.9 1015264
18:00+14e018941 0.5 101566
21:00+14e2288100 0.6 101612
19 april, mon
mon1900:00+14e2287100 0.3 101622
03:00+14e2288100 0.5 101618
06:00+14ese2289100 0.1 101515
09:00+14e229293 0.4 101532
12:00+16sse477942 0.0 1014341
15:00+17se4107095 0.0 1011411
18:00+18e337797 0.0 100916
21:00+17ene3372100 0.0 100630